Date String (YYYY-MM-DD hh:mm:ss) UTC,Instrument flags,Ambient pressure (hPa),Sample flow (lpm),Bypass flow (lpm),Sample temperature (°C),Ambient temperature (°C),ASC tube jacket temperature (°C),LED temperature (°C),Box temperature (°C),Sample RH (%),Span deviation,Mass concentration (μg/m³),Mass concentration (μg/m³),Mass concentration (μg/m³)
DateTimeUTC,F1_M11,P_M11,Q1_M11,Q2_M11,T1_M11,T2_M11,T3_M11,T4_M11,T5_M11,U1_M11,ZSPAN_M11,X0_M11,X2_M11,X1_M11
2023-02-18 14:00:00,,0821.2,5.02,0.00,22.3,22.2,00.0,31.0,24.2,04.4,0000.0,0002.80,0000.91,0000.56
2023-02-18 14:01:00,,0821.2,5.01,0.00,22.3,21.7,00.0,31.0,24.1,04.5,0000.0,0002.89,0000.96,0000.57
2023-02-18 14:02:00,,0821.2,5.00,0.00,22.3,21.3,00.0,31.0,24.0,04.4,0000.0,0002.98,0001.00,0000.58
2023-02-18 14:03:00,,0821.2,5.01,0.00,22.2,21.0,00.0,31.1,23.9,04.1,0000.0,0003.10,0001.05,0000.59
2023-02-18 14:04:00,,0821.2,4.98,0.00,22.2,20.9,00.0,31.1,23.8,04.2,0000.0,0003.19,0001.08,0000.60
2023-02-18 14:05:00,,0821.2,5.00,0.00,22.2,20.7,00.0,31.1,23.8,04.5,0000.0,0003.34,0001.11,0000.61
2023-02-18 14:06:00,,0821.2,5.00,0.00,22.1,20.4,00.0,31.1,23.7,04.2,0000.0,0003.26,0001.07,0000.60
2023-02-18 14:07:00,,0821.1,4.99,0.00,22.1,20.3,00.0,31.0,23.7,04.6,0000.0,0003.33,0001.08,0000.60
2023-02-18 14:08:00,,0821.1,4.99,0.00,22.0,20.2,00.0,31.0,23.6,04.1,0000.0,0003.54,0001.14,0000.59
2023-02-18 14:09:00,,0821.1,5.00,0.00,22.0,20.1,00.0,31.0,23.6,04.3,0000.0,0003.15,0001.16,0000.60
2023-02-18 14:10:00,,0821.2,5.00,0.00,22.0,20.0,00.0,31.0,23.5,03.8,0000.0,0002.31,0001.12,0000.61
2023-02-18 14:11:00,,0821.2,5.00,0.00,21.9,19.9,00.0,31.0,23.5,04.4,0000.0,0002.31,0001.12,0000.62
2023-02-18 14:12:00,,0821.1,5.00,0.00,21.9,20.0,00.0,30.9,23.4,04.7,0000.0,0002.44,0001.14,0000.63
2023-02-18 14:13:00,,0821.1,5.00,0.00,21.9,20.2,00.0,30.9,23.5,04.7,0000.0,0002.39,0001.11,0000.63
2023-02-18 14:14:00,,0821.1,5.00,0.00,22.0,21.5,00.0,30.8,23.8,04.3,0000.0,0002.39,0001.10,0000.63
2023-02-18 14:15:00,,0821.2,4.96,0.00,22.1,22.7,00.0,30.8,24.1,04.4,0000.0,0002.42,0001.12,0000.63
2023-02-18 14:16:00,,0821.2,4.95,0.00,22.2,22.9,00.0,30.9,24.2,04.2,0000.0,0002.46,0001.14,0000.64
2023-02-18 14:17:00,,0821.1,4.99,0.00,22.2,22.3,00.0,30.9,24.1,04.3,0000.0,0002.67,0001.20,0000.64
2023-02-18 14:18:00,,0821.1,4.99,0.00,22.2,21.7,00.0,31.0,24.0,04.0,0000.0,0002.74,0001.23,0000.64
2023-02-18 14:19:00,,0821.1,5.00,0.00,22.2,21.3,00.0,31.0,23.9,04.1,0000.0,0002.56,0001.20,0000.66
2023-02-18 14:20:00,,0821.1,4.98,0.00,22.2,21.0,00.0,31.0,23.8,03.8,0000.0,0002.40,0001.17,0000.67
2023-02-18 14:21:00,,0821.1,5.03,0.00,22.1,20.8,00.0,31.0,23.8,03.6,0000.0,0002.58,0001.18,0000.68
2023-02-18 14:22:00,,0821.1,5.00,0.00,22.1,20.6,00.0,31.0,23.8,03.6,0000.0,0002.65,0001.19,0000.68
2023-02-18 14:23:00,,0821.1,5.00,0.00,22.1,20.5,00.0,31.0,23.7,03.5,0000.0,0002.39,0001.13,0000.67
2023-02-18 14:24:00,,0821.1,5.00,0.00,22.1,20.3,00.0,31.0,23.7,03.7,0000.0,0002.36,0001.11,0000.68
2023-02-18 14:25:00,,0821.1,5.00,0.00,22.0,20.2,00.0,31.0,23.6,03.9,0000.0,0002.28,0001.09,0000.68
2023-02-18 14:26:00,,0821.1,5.01,0.00,22.0,20.1,00.0,31.0,23.6,03.8,0000.0,0002.21,0001.07,0000.68
2023-02-18 14:27:00,,0821.2,5.00,0.00,22.0,20.1,00.0,31.0,23.6,04.0,0000.0,0002.06,0001.04,0000.68
2023-02-18 14:28:00,,0821.1,5.00,0.00,21.9,20.0,00.0,30.9,23.6,04.3,0000.0,0002.09,0001.04,0000.68
2023-02-18 14:29:00,,0821.2,5.00,0.00,21.9,20.0,00.0,30.9,23.5,04.4,0000.0,0002.15,0001.06,0000.69
2023-02-18 14:30:00,,0821.2,5.01,0.00,21.9,20.8,00.0,30.9,23.7,04.4,0000.0,0002.29,0001.10,0000.70
2023-02-18 14:31:00,,0821.2,5.00,0.00,22.1,22.1,00.0,30.8,24.0,04.1,0000.0,0002.72,0001.15,0000.70
2023-02-18 14:32:00,,0821.2,5.02,0.00,22.2,23.2,00.0,30.8,24.3,04.6,0000.0,0002.64,0001.14,0000.70
2023-02-18 14:33:00,,0821.2,5.01,0.00,22.3,22.8,00.0,30.9,24.3,04.6,0000.0,0002.53,0001.12,0000.69
2023-02-18 14:34:00,,0821.2,5.02,0.00,22.3,22.2,00.0,31.0,24.2,03.8,0000.0,0002.61,0001.14,0000.69
2023-02-18 14:35:00,,0821.2,5.02,0.00,22.3,21.8,00.0,31.0,24.1,03.7,0000.0,0002.71,0001.16,0000.68
2023-02-18 14:36:00,,0821.2,5.01,0.00,22.3,21.4,00.0,31.0,24.0,03.5,0000.0,0002.86,0001.18,0000.67
2023-02-18 14:37:00,,0821.3,5.00,0.00,22.2,21.0,00.0,31.0,23.9,04.0,0000.0,0002.76,0001.15,0000.67
2023-02-18 14:38:00,,0821.2,5.01,0.00,22.2,20.8,00.0,31.1,23.9,03.7,0000.0,0002.79,0001.17,0000.68
2023-02-18 14:39:00,,0821.2,5.00,0.00,22.2,20.7,00.0,31.1,23.8,03.0,0000.0,0002.62,0001.15,0000.67
2023-02-18 14:40:00,,0821.3,5.00,0.00,22.1,20.6,00.0,31.0,23.8,03.6,0000.0,0002.53,0001.12,0000.66
2023-02-18 14:41:00,,0821.2,4.99,0.00,22.1,20.5,00.0,31.1,23.7,03.4,0000.0,0002.55,0001.09,0000.65
2023-02-18 14:42:00,,0821.2,5.01,0.00,22.1,20.4,00.0,31.0,23.7,03.2,0000.0,0003.00,0001.05,0000.64
2023-02-18 14:43:00,,0821.2,5.01,0.00,22.0,20.3,00.0,31.0,23.7,03.1,0000.0,0002.94,0001.06,0000.63
2023-02-18 14:44:00,,0821.3,4.97,0.00,22.0,20.2,00.0,31.0,23.6,03.1,0000.0,0003.04,0001.10,0000.63
2023-02-18 14:45:00,,0821.3,5.01,0.00,22.0,20.1,00.0,31.0,23.6,02.9,0000.0,0003.06,0001.12,0000.64
2023-02-18 14:46:00,,0821.3,5.01,0.00,22.0,20.0,00.0,31.0,23.5,03.3,0000.0,0002.97,0001.09,0000.64
2023-02-18 14:47:00,,0821.3,5.00,0.00,21.9,20.0,00.0,30.9,23.5,03.5,0000.0,0003.05,0001.12,0000.63
2023-02-18 14:48:00,,0821.3,5.01,0.00,21.9,20.6,00.0,30.9,23.6,03.8,0000.0,0003.19,0001.17,0000.63
2023-02-18 14:49:00,,0821.3,5.01,0.00,22.0,21.9,00.0,30.8,23.9,04.0,0000.0,0003.54,0001.13,0000.62
2023-02-18 14:50:00,,0821.3,4.99,0.00,22.2,23.0,00.0,30.8,24.2,03.8,0000.0,0003.52,0001.07,0000.61
2023-02-18 14:51:00,,0821.2,4.98,0.00,22.3,22.7,00.0,30.9,24.2,04.1,0000.0,0003.53,0001.07,0000.61
2023-02-18 14:52:00,,0821.2,5.01,0.00,22.3,22.1,00.0,31.0,24.1,04.1,0000.0,0003.64,0001.09,0000.62
2023-02-18 14:53:00,,0821.2,4.99,0.00,22.2,21.7,00.0,31.0,24.0,03.5,0000.0,0004.41,0001.09,0000.62
2023-02-18 14:54:00,,0821.2,5.00,0.00,22.2,21.3,00.0,31.0,23.9,03.2,0000.0,0004.37,0001.09,0000.62
2023-02-18 14:55:00,,0821.2,4.99,0.00,22.2,21.1,00.0,31.1,23.8,03.7,0000.0,0004.36,0001.09,0000.62
2023-02-18 14:56:00,,0821.2,5.01,0.00,22.2,20.8,00.0,31.1,23.8,03.8,0000.0,0004.31,0001.06,0000.61
2023-02-18 14:57:00,,0821.2,5.01,0.00,22.1,20.6,00.0,31.1,23.8,04.0,0000.0,0004.26,0001.05,0000.62
2023-02-18 14:58:00,,0821.2,5.01,0.00,22.1,20.4,00.0,31.0,23.7,03.7,0000.0,0004.08,0001.01,0000.62
2023-02-18 14:59:00,,0821.2,5.02,0.00,22.1,20.3,00.0,31.0,23.6,03.4,0000.0,0003.90,0000.96,0000.62
